STARLINK-34710

Last updated on Tue Sep 16 2025 00:02:07 GMT+0000 (Coordinated Universal Time)

1 65365U 25190Q 25257.92399884 -.00317045 00000+0 -33579-2 0 9995 2 65365 53.1586 268.2197 0003477 174.1051 186.0006 15.64458612 2320
UTC large
Height (km)
Speed (km/s)
/
Latitude / Longitude
Inclination (degrees)
Orbital Period (minutes)
Azimuth
Elevation
Range (km)
Doppler Factor

Next 0 passes for location: London (51.5072 / 0.1276)

Sorry there are no passes over London.